Location: Cheyres
(46.8153°N, 6.7877°E)
Time: 01:41:16
(UTC+00:00)

Tiros 1 - Pass Details

Date: 04 June 2022
Orbit: 629 x 663 km, 48.4° (Epoch: 05 July)

Event Time Altitude Azimuth Distance (km) Brightness Sun altitude
Rises 22:18:58 0° 258° (WSW) 2,911 10.6 -18.8°
Reaches altitude 10° 22:21:17 10° 259° (W) 2,004 9.7 -18.9°
Maximum altitude 22:25:54 83° 346° (NNW) 639 7.1 -19.1°
Drops below altitude 10° 22:30:33 10° 77° (ENE) 2,013 9.7 -19.3°
Sets 22:32:53 0° 78° (ENE) 2,926 10.5 -19.4°
